GPS 2-16 Rocket1 - Orbit

View from above orbital plane
View from above orbital plane
View from above satellite
View from above satellite

Ground track
Ground track

The orbit data is extracted from the following two-line orbital elements,

1 22232U 92079B   13138.76389934  .00169572  00000-0  10066-2 0   315
2 22232 021.1992 284.0663 0017477 044.0535 086.5389 15.75963295131256
Epoch (UTC): 18 May 2013 18:20:00
Eccentricity: 0.0017477
inclination: 21.1992°
perigee height: 330 km
apogee height: 353 km
right ascension of ascending node: 284.0663°
argument of perigee: 44.0535°
revolutions per day: 15.75963295
mean anomaly at epoch: 86.5389°
orbit number at epoch: 13125

The dashed part of the orbit path shows where the satellite is in the earth's shadow,  

Developed and maintained by Chris Peat, Heavens-Above GmbH. Please read the updated FAQ before sending e-mail. Imprint. DLR